This is the latest recevied weather packets stored in our database for station/object KB1JL-13. If no packets are shown the sender has not sent any weather packets the latest 10 day(s).
| Time | Temp. | Humidity | Pressure | Rain* | Wind** | Luminosity | Snow |
|---|---|---|---|---|---|---|---|
| 1777756248 | 13.89° C | 60% | 1021.2 hPa | 0 mm | - | 95 W/m² | - |
| 1777755945 | 13.89° C | 60% | 1021.2 hPa | 0 mm | - | 124 W/m² | - |
| 1777755339 | 15° C | 57% | 1020.9 hPa | 0 mm | - | 193 W/m² | - |
| 1777754431 | 14.44° C | 64% | 1021.6 hPa | 0 mm | - | 333 W/m² | - |
| 1777753520 | 13.89° C | 63% | 1021.6 hPa | 0 mm | - | 392 W/m² | - |
| 1777753219 | 13.33° C | 68% | 1021.6 hPa | 0 mm | - | 233 W/m² | - |
| 1777752914 | 13.33° C | 64% | 1021.9 hPa | 0 mm | - | 225 W/m² | - |
| 1777752611 | 13.89° C | 66% | 1021.6 hPa | 0 mm | - | 252 W/m² | - |
| 1777751703 | 13.33° C | 71% | 1022.2 hPa | 0 mm | - | 261 W/m² | - |
| 1777751095 | 12.78° C | 71% | 1021.9 hPa | 0 mm | - | 254 W/m² | - |
| 1777750791 | 13.33° C | 70% | 1021.9 hPa | 0 mm | - | 244 W/m² | - |
| 1777750184 | 13.33° C | 74% | 1022.6 hPa | 0 mm | - | 462 W/m² | - |
| 1777749881 | 12.78° C | 74% | 1022.6 hPa | 0 mm | - | 255 W/m² | - |
| 1777749578 | 13.33° C | 74% | 1022.6 hPa | 0 mm | - | 562 W/m² | - |
| 1777749276 | 12.78° C | 73% | 1022.6 hPa | 0 mm | - | 274 W/m² | - |
| 1777748973 | 12.78° C | 76% | 1022.2 hPa | 0 mm | - | 346 W/m² | - |
| 1777748670 | 13.33° C | 76% | 1022.6 hPa | 0 mm | - | 667 W/m² | - |
| 1777748367 | 12.22° C | 78% | 1022.6 hPa | 0 mm | - | 422 W/m² | - |
| 1777748062 | 12.22° C | 78% | 1022.6 hPa | 0 mm | - | 192 W/m² | - |
| 1777747455 | 12.78° C | 78% | 1023 hPa | 0 mm | - | 224 W/m² | - |
| 1777747151 | 12.78° C | 80% | 1023 hPa | 0 mm | - | 348 W/m² | - |
| 1777746543 | 11.67° C | 82% | 1023 hPa | 0 mm | - | 340 W/m² | - |
| 1777746239 | 11.67° C | 85% | 1023 hPa | 0 mm | - | 301 W/m² | - |
| 1777745935 | 12.22° C | 83% | 1022.6 hPa | 0 mm | - | 299 W/m² | - |
| 1777745634 | 11.67° C | 86% | 1023.4 hPa | 0 mm | - | 670 W/m² | - |
* Rain latest hour (hover to see other rain measurements)
** Current wind speed in m/s (hover to see current wind gust speed)